SUNNYSIDE Weather Reports


Display with metric or nautical units.
time (UTC)temp
F
wind
direction
speed
MPH
gust
MPH
rain 1hr
in
rain 24hr
in
rain mn
in
humidity
%
barometer
mb
20260904224017 78 86 5.0 12.0 0.00 0.00 0.00 53 984.8
20260904223516 78 360 7.0 12.0 0.00 0.00 0.00 52 984.8
20260904223019 79 92 4.0 8.0 0.00 0.00 0.00 52 984.6
20260904222519 79 96 3.0 6.0 0.00 0.00 0.00 49 984.8
20260904222016 79 79 1.0 9.0 0.00 0.00 0.00 50 984.7
20260904221516 79 115 1.0 9.0 0.00 0.00 0.00 49 984.7
20260904221017 79 181 2.0 5.0 0.00 0.00 0.00 48 984.7
20260904220517 79 86 2.0 6.0 0.00 0.00 0.00 49 984.7
20260904220017 79 360 3.0 7.0 0.00 0.00 0.00 49 984.7
20260904215517 79 88 1.0 6.0 0.00 0.00 0.00 50 984.7
20260904215015 79 88 2.0 7.0 0.00 0.00 0.00 51 984.6
20260904214515 79 86 1.0 9.0 0.00 0.00 0.00 50 984.6
20260904214015 79 88 5.0 9.0 0.00 0.00 0.00 49 984.5
20260904213516 79 116 3.0 7.0 0.00 0.00 0.00 49 984.5
20260904213015 79 136 4.0 8.0 0.00 0.00 0.00 50 984.4
20260904212515 79 122 4.0 8.0 0.00 0.00 0.00 49 984.4
20260904212014 80 107 1.0 10.0 0.00 0.00 0.00 50 984.3
20260904211515 79 140 1.0 10.0 0.00 0.00 0.00 50 984.4
20260904211013 79 174 3.0 8.0 0.00 0.00 0.00 50 984.3
20260904210512 79 89 1.0 7.0 0.00 0.00 0.00 49 984.3
20260904210016 79 107 4.0 8.0 0.00 0.00 0.00 49 984.3
20260904205512 79 98 3.0 8.0 0.00 0.00 0.00 49 984.6
20260904205011 79 34 1.0 7.0 0.00 0.00 0.00 49 984.5
20260904204511 79 123 2.0 8.0 0.00 0.00 0.00 51 984.5
20260904204014 79 132 3.0 8.0 0.00 0.00 0.00 49 984.6
20260904203511 78 109 3.0 6.0 0.00 0.00 0.00 50 984.6
20260904203010 78 156 1.0 8.0 0.00 0.00 0.00 50 984.7
20260904202509 78 100 3.0 8.0 0.00 0.00 0.00 51 984.6
20260904202012 78 84 4.0 8.0 0.00 0.00 0.00 50 984.6
20260904201509 78 100 2.0 8.0 0.00 0.00 0.00 50 984.7
20260904201009 78 110 2.0 7.0 0.00 0.00 0.00 50 984.8
20260904200508 78 86 1.0 7.0 0.00 0.00 0.00 50 984.7
20260904200008 78 121 2.0 7.0 0.00 0.00 0.00 50 984.8
20260904195511 78 103 3.0 6.0 0.00 0.01 0.00 44 984.8
20260904195006 77 360 2.0 7.0 0.00 0.01 0.00 44 984.9
20260904194505 77 137 3.0 7.0 0.00 0.01 0.00 44 984.9
20260904194006 77 100 1.0 7.0 0.00 0.01 0.00 45 984.9
20260904193505 77 112 2.0 8.0 0.00 0.01 0.00 45 984.9
20260904193005 77 54 3.0 8.0 0.00 0.01 0.00 46 985.0
20260904192506 77 78 2.0 8.0 0.00 0.01 0.00 45 985.0
20260904192004 77 76 3.0 7.0 0.00 0.01 0.00 46 985.0
20260904191503 76 151 1.0 7.0 0.00 0.01 0.00 45 985.1
20260904191004 76 170 1.0 7.0 0.00 0.01 0.00 46 985.2
20260904190504 76 86 2.0 9.0 0.00 0.01 0.00 48 985.2
20260904190003 76 67 2.0 6.0 0.00 0.01 0.00 48 985.3
20260904185500 76 169 2.0 5.0 0.00 0.01 0.00 47 985.2
20260904185059 75 140 1.0 8.0 0.00 0.01 0.00 49 985.4
20260904184616 75 136 3.0 8.0 0.00 0.01 0.00 48 985.4
20260904184059 75 90 0.0 4.0 0.00 0.01 0.00 50 985.4
20260904183559 75 90 0.0 5.0 0.00 0.01 0.00 47 985.5
20260904183059 75 171 1.0 5.0 0.00 0.01 0.00 48 985.6
20260904182602 75 146 2.0 5.0 0.00 0.01 0.00 48 985.6
20260904182058 75 100 3.0 5.0 0.00 0.01 0.00 48 985.6
20260904181557 75 83 3.0 6.0 0.00 0.01 0.00 50 985.6
20260904181155 74 11 1.0 4.0 0.00 0.01 0.00 51 985.7
20260904180555 74 9 0.0 3.0 0.00 0.01 0.00 51 985.5
20260904180054 74 355 0.0 5.0 0.00 0.01 0.00 52 985.5
20260904175553 74 44 1.0 5.0 0.00 0.01 0.00 53 985.5
20260904175052 74 21 2.0 9.0 0.00 0.01 0.00 52 985.6
20260904174551 74 29 2.0 9.0 0.00 0.01 0.00 54 985.4
20260904174050 73 348 1.0 9.0 0.00 0.01 0.00 55 985.0
20260904173548 73 107 1.0 6.0 0.00 0.01 0.00 56 985.0
20260904173100 72 26 2.0 8.0 0.00 0.01 0.00 57 985.0
20260904172546 72 61 1.0 8.0 0.00 0.01 0.00 57 985.0
20260904172045 72 74 3.0 8.0 0.00 0.01 0.00 59 985.1
20260904171547 71 19 1.0 9.0 0.00 0.01 0.00 61 985.2
20260904171042 70 360 3.0 8.0 0.00 0.01 0.00 63 985.2
20260904170541 70 13 4.0 9.0 0.00 0.01 0.00 64 985.2
20260904170041 69 74 4.0 9.0 0.00 0.01 0.00 66 985.3
20260904165540 68 22 1.0 9.0 0.00 0.01 0.00 68 985.3
20260904165036 67 22 1.0 10.0 0.00 0.01 0.00 69 985.3
20260904164534 67 355 3.0 10.0 0.00 0.01 0.00 70 985.4
20260904164033 66 314 3.0 6.0 0.00 0.01 0.00 70 985.6
20260904163532 66 336 2.0 5.0 0.00 0.01 0.00 70 985.5
20260904163030 65 349 1.0 5.0 0.00 0.01 0.00 71 985.5
20260904162529 65 22 3.0 8.0 0.00 0.01 0.00 70 985.5
20260904162027 64 338 4.0 8.0 0.00 0.01 0.00 71 985.7
20260904161526 64 347 3.0 6.0 0.00 0.01 0.00 71 985.5
20260904161028 64 22 3.0 6.0 0.00 0.01 0.00 70 985.4
20260904160525 63 355 1.0 9.0 0.00 0.01 0.00 71 985.3
20260904160021 63 29 4.0 9.0 0.00 0.01 0.00 71 985.3
20260904155520 63 342 4.0 10.0 0.00 0.01 0.00 70 985.2
20260904155018 63 360 4.0 10.0 0.00 0.01 0.00 71 985.2
20260904154516 62 327 5.0 9.0 0.00 0.01 0.00 71 985.4
20260904154016 62 360 5.0 9.0 0.00 0.01 0.00 71 985.4
20260904153517 62 9 4.0 8.0 0.00 0.01 0.00 71 985.4
20260904153016 62 332 5.0 8.0 0.00 0.01 0.00 71 985.4
20260904152514 62 341 2.0 6.0 0.00 0.01 0.00 71 985.3
20260904152014 61 339 3.0 6.0 0.00 0.01 0.00 71 985.4
20260904151514 61 345 2.0 6.0 0.00 0.01 0.00 71 985.4
20260904151013 61 340 3.0 6.0 0.00 0.01 0.00 71 985.3
20260904150512 61 360 4.0 8.0 0.00 0.01 0.00 71 985.3
20260904150013 61 345 4.0 8.0 0.00 0.01 0.00 71 985.2
20260904145510 60 347 4.0 6.0 0.00 0.01 0.00 71 985.2
20260904145009 60 300 4.0 6.0 0.00 0.01 0.00 71 985.2
20260904144509 60 306 3.0 6.0 0.00 0.01 0.00 71 985.2
20260904144008 60 360 3.0 6.0 0.00 0.01 0.00 71 985.2
20260904143508 59 351 3.0 8.0 0.00 0.01 0.00 71 985.2
20260904143008 59 344 3.0 8.0 0.00 0.01 0.00 71 985.3
20260904142508 59 360 4.0 6.0 0.00 0.01 0.00 71 985.4
20260904142011 59 274 2.0 6.0 0.00 0.01 0.00 71 985.4
20260904141507 59 281 3.0 5.0 0.00 0.01 0.00 71 985.3
20260904141006 58 296 3.0 5.0 0.00 0.01 0.00 71 985.3
20260904140506 58 303 1.0 4.0 0.00 0.01 0.00 71 985.3
20260904140007 58 360 1.0 5.0 0.00 0.01 0.00 71 985.3
20260904135507 58 331 2.0 5.0 0.00 0.01 0.00 71 985.3
20260904135005 57 360 2.0 6.0 0.00 0.01 0.00 71 985.3
20260904134508 57 277 3.0 6.0 0.00 0.01 0.00 71 985.2
20260904134006 57 298 2.0 5.0 0.00 0.01 0.00 71 985.1
20260904133507 57 360 2.0 4.0 0.00 0.01 0.00 71 985.2
20260904133004 57 306 2.0 4.0 0.00 0.01 0.00 71 985.1
20260904132504 56 307 2.0 6.0 0.00 0.01 0.00 71 985.0
20260904132003 56 283 3.0 6.0 0.00 0.01 0.00 71 985.0
20260904131504 56 282 1.0 4.0 0.00 0.01 0.00 71 985.0
20260904131004 56 300 2.0 4.0 0.00 0.01 0.00 71 985.0
20260904130507 56 287 1.0 4.0 0.00 0.01 0.00 71 985.0
20260904130103 56 360 2.0 3.0 0.00 0.01 0.00 71 985.1
20260904125502 55 267 2.0 3.0 0.00 0.01 0.00 71 985.0
20260904125002 55 294 1.0 4.0 0.00 0.01 0.00 71 984.9
20260904124613 55 292 1.0 4.0 0.00 0.01 0.00 71 984.8
20260904124059 55 297 1.0 4.0 0.00 0.01 0.00 71 984.8
20260904123603 55 288 1.0 3.0 0.00 0.01 0.00 71 984.7
20260904123103 55 287 0.0 0.0 0.00 0.01 0.00 71 984.7
20260904122559 55 286 0.0 0.0 0.00 0.01 0.00 71 984.7
20260904122059 55 286 0.0 0.0 0.00 0.01 0.00 71 984.6
20260904121558 55 275 0.0 0.0 0.00 0.01 0.00 71 984.6
20260904121103 55 275 0.0 1.0 0.00 0.01 0.00 71 984.6
20260904120556 55 275 0.0 2.0 0.00 0.01 0.00 71 984.4
20260904120056 55 275 0.0 3.0 0.00 0.01 0.00 71 984.4
20260904115600 55 275 1.0 3.0 0.00 0.01 0.00 71 984.3
20260904115059 55 284 0.0 2.0 0.00 0.01 0.00 71 984.2
20260904114601 55 284 0.0 3.0 0.00 0.01 0.00 71 984.3
20260904114055 55 284 1.0 3.0 0.00 0.01 0.00 71 984.3
20260904113554 55 284 2.0 4.0 0.00 0.01 0.00 71 984.2
20260904113053 55 268 2.0 5.0 0.00 0.01 0.00 71 984.2
20260904112552 55 268 3.0 5.0 0.00 0.01 0.00 71 983.9
20260904112052 55 254 3.0 6.0 0.00 0.01 0.00 71 983.8
20260904111551 55 248 2.0 5.0 0.00 0.01 0.00 71 983.7
20260904111052 55 254 2.0 5.0 0.00 0.01 0.00 71 983.7
20260904110550 55 261 2.0 4.0 0.00 0.01 0.00 71 983.7
20260904110050 55 254 2.0 4.0 0.00 0.01 0.00 71 983.6
20260904105549 54 244 1.0 3.0 0.00 0.01 0.00 71 983.6
20260904105050 54 234 1.0 3.0 0.00 0.01 0.00 71 983.6
20260904104550 55 234 2.0 4.0 0.00 0.01 0.00 71 983.6
20260904104049 54 235 3.0 4.0 0.00 0.01 0.00 71 983.6
20260904103548 54 277 1.0 3.0 0.00 0.01 0.00 70 983.6
20260904103049 55 277 2.0 3.0 0.00 0.01 0.00 71 983.6
20260904102552 55 277 0.0 2.0 0.00 0.01 0.00 71 983.4
20260904102050 54 277 1.0 2.0 0.00 0.01 0.00 70 983.3
20260904101547 55 277 0.0 2.0 0.00 0.01 0.00 71 983.2
20260904101046 54 277 1.0 3.0 0.00 0.01 0.00 70 983.4
20260904100546 54 277 2.0 3.0 0.00 0.01 0.00 70 983.3
20260904100056 55 277 0.0 2.0 0.00 0.01 0.00 71 983.1
20260904095545 55 277 0.0 2.0 0.00 0.01 0.00 71 983.1
20260904095044 55 277 1.0 2.0 0.00 0.01 0.00 70 983.1
20260904094554 55 277 1.0 2.0 0.00 0.01 0.00 70 983.0
20260904094044 55 277 0.0 3.0 0.00 0.01 0.00 70 983.1
20260904093545 55 277 2.0 3.0 0.00 0.01 0.00 70 983.1
20260904093043 55 23 1.0 2.0 0.00 0.01 0.00 70 983.0
20260904092641 56 23 1.0 2.0 0.00 0.01 0.00 70 982.9
20260904092040 56 23 1.0 2.0 0.00 0.01 0.00 70 982.8
20260904091539 56 23 1.0 2.0 0.00 0.01 0.00 70 982.7
20260904091039 57 23 0.0 2.0 0.00 0.01 0.00 70 982.7
20260904090536 57 23 0.0 0.0 0.00 0.01 0.00 70 982.6
20260904090048 57 23 0.0 0.0 0.00 0.01 0.00 70 982.7
20260904085536 57 23 0.0 0.0 0.00 0.01 0.00 70 982.6
20260904085035 57 23 0.0 0.0 0.00 0.01 0.00 70 982.6
20260904084536 57 23 0.0 0.0 0.00 0.01 0.00 69 982.6
20260904084033 58 23 0.0 1.0 0.00 0.01 0.00 69 982.5
20260904083536 58 23 0.0 1.0 0.00 0.01 0.00 70 982.4
20260904083105 58 23 0.0 1.0 0.00 0.01 0.00 70 982.4
20260904082535 58 23 0.0 2.0 0.00 0.01 0.00 70 982.4
20260904082033 58 23 0.0 2.0 0.00 0.01 0.00 70 982.5
20260904081534 58 23 0.0 1.0 0.00 0.01 0.00 69 982.5
20260904081031 58 23 0.0 1.0 0.00 0.01 0.00 69 982.5
20260904080532 58 23 0.0 0.0 0.00 0.01 0.00 70 982.5
20260904080031 58 23 0.0 0.0 0.00 0.01 0.00 70 982.4
20260904075531 58 23 0.0 0.0 0.00 0.01 0.00 69 982.5
20260904075032 58 23 0.0 1.0 0.00 0.01 0.00 69 982.4
20260904074532 58 23 0.0 1.0 0.00 0.01 0.00 69 982.3
20260904074028 59 23 0.0 0.0 0.00 0.01 0.00 69 982.4
20260904073527 59 23 0.0 0.0 0.00 0.01 0.00 69 982.4
20260904073026 59 23 0.0 1.0 0.00 0.01 0.00 69 982.3
20260904072526 60 23 0.0 1.0 0.00 0.01 0.00 69 982.3
20260904072030 60 23 0.0 0.0 0.00 0.01 0.00 69 982.3
20260904071526 60 23 0.0 1.0 0.00 0.01 0.00 69 982.4
20260904071024 60 23 0.0 1.0 0.00 0.01 0.00 69 982.3
20260904070524 60 23 0.0 1.0 0.00 0.01 0.00 69 982.3
20260904070044 60 23 0.0 1.0 0.00 0.01 0.00 69 982.3
20260904065523 60 23 0.0 1.0 0.00 0.01 0.00 69 982.3
20260904065026 60 23 0.0 1.0 0.00 0.01 0.00 69 982.3
20260904064524 60 23 0.0 2.0 0.00 0.01 0.00 69 982.2
20260904064022 60 23 0.0 1.0 0.00 0.01 0.00 68 982.2
20260904063529 60 25 0.0 0.0 0.00 0.01 0.00 68 982.2
20260904063027 60 25 0.0 0.0 0.00 0.01 0.00 68 982.3
20260904062520 60 25 0.0 0.0 0.00 0.01 0.00 68 982.3
20260904062020 61 25 0.0 0.0 0.00 0.01 0.00 68 982.3
20260904061525 61 25 0.0 0.0 0.00 0.01 0.00 68 982.2
20260904061018 61 25 0.0 0.0 0.00 0.01 0.00 68 982.3
20260904060521 61 25 0.0 0.0 0.00 0.01 0.00 67 982.4
20260904060018 61 25 0.0 0.0 0.00 0.01 0.00 67 982.5
20260904055517 61 25 0.0 0.0 0.00 0.01 0.00 67 982.5
20260904055016 61 25 0.0 0.0 0.00 0.01 0.00 67 982.4
20260904054516 62 25 0.0 0.0 0.00 0.01 0.00 67 982.3
20260904054016 62 25 0.0 1.0 0.00 0.01 0.00 67 982.3
20260904053514 62 25 0.0 1.0 0.00 0.01 0.00 67 982.5
20260904053033 62 25 0.0 2.0 0.00 0.01 0.00 67 982.5
20260904052513 62 44 0.0 2.0 0.00 0.01 0.00 66 982.2
20260904052013 62 42 0.0 2.0 0.00 0.01 0.00 66 982.2
20260904051522 63 40 0.0 2.0 0.00 0.01 0.00 66 982.2
20260904051010 63 40 0.0 2.0 0.00 0.01 0.00 66 982.1
20260904050512 63 40 0.0 1.0 0.00 0.01 0.00 66 982.3
20260904050009 63 40 0.0 1.0 0.00 0.01 0.00 66 982.5
20260904045509 63 40 0.0 1.0 0.00 0.01 0.01 66 982.2
20260904045009 63 40 0.0 1.0 0.00 0.01 0.01 66 982.0
20260904044509 63 40 0.0 3.0 0.00 0.01 0.01 66 981.9
20260904044009 64 40 0.0 3.0 0.00 0.01 0.01 65 981.7
20260904043508 64 46 0.0 3.0 0.00 0.01 0.01 65 981.7
20260904043008 64 47 0.0 3.0 0.00 0.01 0.01 65 981.8
20260904042510 64 47 0.0 4.0 0.00 0.01 0.01 65 981.7
20260904042008 64 67 0.0 4.0 0.00 0.01 0.01 65 981.7
20260904041507 64 42 0.0 4.0 0.00 0.01 0.01 65 981.8
20260904041007 64 62 0.0 3.0 0.00 0.01 0.01 65 981.7
20260904040507 64 32 0.0 1.0 0.00 0.01 0.01 65 981.8
20260904040007 64 32 0.0 3.0 0.00 0.01 0.01 64 981.7
20260904035506 64 26 0.0 3.0 0.00 0.01 0.01 64 981.7
20260904035007 65 29 0.0 3.0 0.00 0.01 0.01 64 981.9
20260904034507 65 23 1.0 3.0 0.00 0.01 0.01 64 982.0
20260904034006 65 355 0.0 2.0 0.00 0.01 0.01 64 981.9
20260904033506 65 355 0.0 2.0 0.00 0.01 0.01 64 982.0
20260904033007 65 355 0.0 1.0 0.00 0.01 0.01 64 982.0
20260904032508 65 355 0.0 1.0 0.00 0.01 0.01 64 981.9
20260904032007 65 355 0.0 1.0 0.00 0.01 0.01 64 981.9
20260904031506 65 355 0.0 1.0 0.00 0.01 0.01 64 981.8
20260904031005 65 355 0.0 1.0 0.00 0.01 0.01 64 981.8
20260904030505 65 355 0.0 1.0 0.00 0.01 0.01 64 981.8
20260904030005 65 355 0.0 1.0 0.00 0.01 0.01 64 981.8
20260904025505 65 355 0.0 1.0 0.00 0.01 0.01 64 981.7
20260904025005 65 355 0.0 1.0 0.00 0.01 0.01 64 981.8
20260904024505 65 355 0.0 1.0 0.00 0.01 0.01 64 981.7
20260904024005 65 355 0.0 2.0 0.00 0.01 0.01 64 981.6
20260904023505 65 355 0.0 2.0 0.00 0.01 0.01 64 981.5
20260904023004 65 340 0.0 2.0 0.00 0.01 0.01 64 981.5
20260904022505 65 340 0.0 2.0 0.00 0.01 0.01 64 981.7
20260904022005 65 342 0.0 2.0 0.00 0.01 0.01 64 981.5
20260904021503 65 342 0.0 1.0 0.00 0.01 0.01 64 981.2
20260904021009 65 342 0.0 1.0 0.00 0.01 0.01 64 981.2
20260904020503 65 342 0.0 1.0 0.00 0.01 0.01 64 981.2
20260904020004 65 342 0.0 1.0 0.00 0.01 0.01 64 981.1
20260904015504 65 342 0.0 1.0 0.00 0.01 0.01 63 981.0
20260904015003 65 342 0.0 2.0 0.00 0.01 0.01 63 981.0
20260904014503 66 342 0.0 2.0 0.00 0.01 0.01 63 980.8
20260904014005 66 342 1.0 3.0 0.00 0.01 0.01 63 980.8
20260904013502 66 342 1.0 3.0 0.00 0.01 0.01 63 980.7
20260904013005 66 342 1.0 3.0 0.00 0.01 0.01 62 980.6
20260904012503 66 338 0.0 4.0 0.00 0.01 0.01 62 980.6
20260904012003 66 338 1.0 4.0 0.00 0.01 0.01 62 980.4
20260904011502 67 5 0.0 3.0 0.00 0.01 0.01 62 980.3
20260904011003 67 46 0.0 3.0 0.00 0.01 0.01 62 980.2
20260904010502 67 48 0.0 3.0 0.00 0.01 0.01 62 980.3
20260904010002 67 74 0.0 3.0 0.00 0.01 0.01 62 980.3
20260904005501 67 30 0.0 3.0 0.00 0.01 0.01 62 980.3
20260904005002 67 34 1.0 3.0 0.00 0.01 0.01 62 980.4
20260904004501 67 24 0.0 3.0 0.00 0.01 0.01 63 980.3
20260904004001 67 37 0.0 3.0 0.00 0.01 0.01 63 980.5
20260904003501 67 22 1.0 4.0 0.00 0.01 0.01 63 980.6
20260904003001 67 5 0.0 4.0 0.00 0.01 0.01 63 980.6
20260904002502 67 9 1.0 4.0 0.00 0.01 0.01 63 980.7
20260904002002 67 294 1.0 5.0 0.00 0.01 0.01 62 980.9
20260904001607 68 288 2.0 6.0 0.00 0.01 0.01 62 980.6
20260904001100 68 300 1.0 4.0 0.00 0.01 0.01 62 980.6
20260904000601 68 307 2.0 3.0 0.00 0.01 0.01 62 980.6
20260904000109 68 298 0.0 3.0 0.00 0.01 0.01 61 980.6
20260903235600 68 291 0.0 2.0 0.00 0.01 0.01 61 980.6
20260903235100 68 291 0.0 1.0 0.00 0.01 0.01 61 980.6
20260903234600 68 291 0.0 2.0 0.00 0.01 0.01 61 980.5
20260903234103 68 292 0.0 3.0 0.00 0.01 0.01 61 980.4
20260903233601 69 292 1.0 3.0 0.00 0.01 0.01 61 980.3
20260903233103 69 292 1.0 3.0 0.00 0.01 0.01 61 980.1
20260903232559 69 360 0.0 2.0 0.00 0.01 0.01 61 979.7
20260903232059 69 360 0.0 3.0 0.00 0.01 0.01 61 979.6
20260903231559 69 360 0.0 3.0 0.00 0.01 0.01 61 979.7
20260903231058 69 360 0.0 3.0 0.00 0.01 0.01 61 979.7
20260903230558 69 360 0.0 3.0 0.00 0.01 0.01 61 979.6
20260903230059 69 360 0.0 3.0 0.00 0.01 0.01 60 979.5
20260903225558 69 229 1.0 2.0 0.00 0.01 0.01 60 979.6
20260903225102 69 229 0.0 1.0 0.00 0.01 0.01 59 979.7
20260903224558 69 229 0.0 1.0 0.00 0.01 0.01 59 979.8